TimeEDT,TemperatureF,Dew PointF,Humidity,Sea Level PressureIn,VisibilityMPH,Wind Direction,Wind SpeedMPH,Gust SpeedMPH,PrecipitationIn,Events,Conditions,WindDirDegrees,DateUTC
12:53 AM,84.0,75.9,76,30.05,10.0,ENE,8.1,-,N/A,,Mostly Cloudy,70,2013-08-21 04:53:00
1:22 AM,78.8,73.4,83,30.05,10.0,East,8.1,-,0.03,Rain-Thunderstorm,Light Thunderstorms and Rain,100,2013-08-21 05:22:00
1:53 AM,78.1,73.0,84,30.05,10.0,East,11.5,-,0.03,Rain-Thunderstorm,Light Thunderstorms and Rain,90,2013-08-21 05:53:00
2:36 AM,78.8,73.4,83,30.04,10.0,East,5.8,-,0.00,Rain,Light Rain,90,2013-08-21 06:36:00
2:53 AM,79.0,73.9,84,30.03,10.0,East,5.8,-,0.00,,Mostly Cloudy,90,2013-08-21 06:53:00
3:53 AM,79.0,75.0,88,30.02,10.0,Calm,Calm,-,0.01,,Mostly Cloudy,0,2013-08-21 07:53:00
4:53 AM,80.1,75.9,87,30.02,10.0,Calm,Calm,-,0.00,,Mostly Cloudy,0,2013-08-21 08:53:00
5:25 AM,80.6,77.0,89,30.03,10.0,Calm,Calm,-,0.00,,Mostly Cloudy,0,2013-08-21 09:25:00
5:53 AM,79.0,77.0,94,30.03,9.0,Calm,Calm,-,0.26,Rain,Light Rain,0,2013-08-21 09:53:00
6:35 AM,78.8,75.2,89,30.04,6.0,East,6.9,-,0.04,Rain,Heavy Rain,100,2013-08-21 10:35:00
6:53 AM,80.1,75.9,87,30.04,10.0,Variable,4.6,-,0.09,Rain-Thunderstorm,Light Thunderstorms and Rain,0,2013-08-21 10:53:00
7:06 AM,78.8,75.2,89,30.04,10.0,SSE,10.4,-,0.00,Rain-Thunderstorm,Light Thunderstorms and Rain,160,2013-08-21 11:06:00
7:28 AM,78.8,75.2,89,30.04,10.0,SE,5.8,-,0.02,Rain,Light Rain,130,2013-08-21 11:28:00
7:53 AM,79.0,75.9,90,30.04,10.0,East,4.6,-,0.02,Rain,Light Rain,100,2013-08-21 11:53:00
8:21 AM,78.8,75.2,89,30.06,10.0,SE,3.5,-,0.00,Rain,Light Rain,130,2013-08-21 12:21:00
8:51 AM,78.8,75.2,89,30.06,10.0,ENE,3.5,-,0.04,,Overcast,60,2013-08-21 12:51:00
8:53 AM,79.0,75.0,88,30.06,10.0,Calm,Calm,-,0.04,,Overcast,0,2013-08-21 12:53:00
9:53 AM,82.9,78.1,85,30.08,10.0,NNE,4.6,-,N/A,,Mostly Cloudy,30,2013-08-21 13:53:00
10:48 AM,84.2,75.2,74,30.07,6.0,ESE,12.7,24.2,N/A,Rain,Light Rain,110,2013-08-21 14:48:00
10:53 AM,82.0,77.0,85,30.07,7.0,East,5.8,24.2,0.04,Rain,Light Rain,90,2013-08-21 14:53:00
11:53 AM,88.0,77.0,70,30.07,10.0,East,13.8,-,0.01,,Mostly Cloudy,90,2013-08-21 15:53:00
12:53 PM,88.0,75.0,65,30.07,10.0,East,16.1,25.3,N/A,,Mostly Cloudy,100,2013-08-21 16:53:00
1:53 PM,88.0,75.9,67,30.06,10.0,East,15.0,-,0.00,,Mostly Cloudy,90,2013-08-21 17:53:00
2:53 PM,81.0,73.9,79,30.04,10.0,SSE,9.2,29.9,0.05,Rain,Heavy Rain,160,2013-08-21 18:53:00
3:53 PM,88.0,77.0,70,30.02,10.0,ESE,16.1,27.6,0.01,,Mostly Cloudy,120,2013-08-21 19:53:00
4:53 PM,88.0,75.9,67,30.01,10.0,ESE,17.3,23.0,N/A,,Mostly Cloudy,110,2013-08-21 20:53:00
5:53 PM,87.1,75.0,67,30.01,9.0,East,20.7,28.8,N/A,,Mostly Cloudy,100,2013-08-21 21:53:00
5:56 PM,84.2,75.2,74,30.00,8.0,ESE,11.5,28.8,0.00,Rain,Light Rain,110,2013-08-21 21:56:00
6:44 PM,84.2,75.2,74,30.00,10.0,East,16.1,21.9,0.00,,Mostly Cloudy,100,2013-08-21 22:44:00
6:53 PM,84.9,75.9,74,30.00,10.0,East,15.0,-,0.00,,Mostly Cloudy,100,2013-08-21 22:53:00
7:16 PM,84.2,75.2,74,30.01,10.0,East,13.8,-,N/A,,Mostly Cloudy,100,2013-08-21 23:16:00
7:53 PM,82.9,73.0,72,30.02,10.0,East,9.2,-,0.00,,Mostly Cloudy,90,2013-08-21 23:53:00
8:51 PM,84.2,75.2,74,30.04,10.0,ESE,10.4,-,N/A,,Mostly Cloudy,110,2013-08-22 00:51:00
8:53 PM,84.0,75.9,76,30.04,10.0,ESE,11.5,-,N/A,,Mostly Cloudy,110,2013-08-22 00:53:00
9:45 PM,84.2,75.2,74,30.05,10.0,ESE,9.2,-,N/A,,Mostly Cloudy,110,2013-08-22 01:45:00
9:53 PM,84.0,75.9,76,30.06,10.0,East,10.4,-,N/A,,Mostly Cloudy,90,2013-08-22 01:53:00
10:53 PM,84.0,75.9,76,30.06,10.0,East,10.4,-,N/A,,Mostly Cloudy,100,2013-08-22 02:53:00
11:10 PM,84.2,75.2,74,30.06,10.0,East,10.4,-,N/A,Thunderstorm,Thunderstorm,100,2013-08-22 03:10:00
11:53 PM,80.1,75.9,87,30.08,10.0,Variable,3.5,-,0.09,Thunderstorm,Thunderstorm,0,2013-08-22 03:53:00